Location: Musselshell
(46.5176°N, 108.0911°W)
Time: 12:11:42
(UTC+00:00)

Envisat - Visible Passes

Search period start: 22 January 2022 00:00
Search period end: 01 February 2022 00:00
Orbit: 764 x 766 km, 98.2° (Epoch: 21 January)

Date Brightness Start Highest point End Pass type
(mag) Time Alt. Az. Time Alt. Az. Time Alt. Az.
22 Jan 3.7 11:50:24 10° NNE 11:55:24 53° E 12:00:21 10° S visible
22 Jan 4.0 13:30:07 10° N 13:34:04 23° WNW 13:38:00 10° WSW visible
23 Jan 6.2 00:50:16 10° WSW 00:52:18 12° W 00:54:20 10° WNW visible
23 Jan 5.0 11:14:05 10° NE 11:18:17 25° E 11:22:28 10° SSE visible
23 Jan 3.2 12:52:39 10° N 12:57:29 45° WNW 13:02:18 10° SW visible
24 Jan 5.9 10:39:04 10° ENE 10:40:59 12° E 10:42:52 10° ESE visible
24 Jan 2.9 12:15:36 10° NNE 12:20:43 88° ESE 12:25:49 10° SSW visible
24 Jan 4.5 13:56:15 10° NNW 13:59:01 15° WNW 14:01:47 10° W visible
25 Jan 4.1 11:38:55 10° NNE 11:43:45 42° E 11:48:33 10° S visible
25 Jan 3.8 13:18:18 10° N 13:22:35 28° WNW 13:26:51 10° WSW visible
26 Jan 6.0 00:37:33 10° SW 00:40:33 16° W 00:43:34 10° NW visible
26 Jan 5.3 11:02:49 10° NE 11:06:35 20° E 11:10:20 10° SE visible
26 Jan 3.0 12:40:58 10° N 12:45:57 56° WNW 12:50:54 10° SSW visible
27 Jan 3.1 12:04:01 10° NNE 12:09:07 71° ESE 12:14:11 10° S visible
27 Jan 4.3 13:44:13 10° NNW 13:47:35 18° WNW 13:50:56 10° W visible
28 Jan 4.5 11:27:28 10° NNE 11:32:05 34° E 11:36:40 10° SSE visible
28 Jan 3.6 13:06:31 10° N 13:11:05 34° WNW 13:15:38 10° SW visible
29 Jan 5.6 10:51:41 10° NE 10:54:52 16° E 10:58:00 10° SE visible
29 Jan 2.9 12:29:19 10° N 12:34:23 70° WNW 12:39:26 10° SSW visible
30 Jan 3.5 11:52:28 10° NNE 11:57:29 57° E 12:02:28 10° S visible
30 Jan 4.1 13:32:17 10° NNW 13:36:07 22° WNW 13:39:56 10° WSW visible
31 Jan 6.3 00:52:50 10° WSW 00:54:26 11° W 00:56:03 10° WNW visible
31 Jan 4.9 11:16:06 10° NE 11:20:24 27° E 11:24:41 10° SSE visible
31 Jan 3.3 12:54:47 10° N 12:59:34 42° WNW 13:04:19 10° SW visible
